Weather History for Minot, ND

Change the Weather History Date:

Sunday, December 16, 2012

  Actual Average Record
Temperature  
Mean Temperature 13 °F 15 °F  
Max Temperature 18 °F 23 °F 54 °F (1962)
Min Temperature 7 °F 7 °F -24 °F (1922)
Degree Days  
Heating Degree Days 52 50  
Month to date heating degree days 757 763  
Since 1 July heating degree days 2841 2821  
Moisture  
Dew Point 11 °F    
Average Humidity 90    
Maximum Humidity 96    
Minimum Humidity 84    
Precipitation  
Precipitation T in 0.01 in 0.43 in (1977)
Month to date precipitation 0.04 0.19  
Year to date precipitation 13.58 17.00  
Sea Level Pressure  
Sea Level Pressure 29.82 in    
Wind  
Wind Speed 5 mph (SE)    
Max Wind Speed 12 mph    
Max Gust Speed 14 mph    
Visibility 3 miles    
Events Fog , Snow    
T = Trace of Precipitation, MM = Missing Value Source: NWS Daily Summary

Daily Weather History Graph

Daily Weather History Graph

Search for Another Location

Airport:

Trip Planner

Search our weather history database for the weather conditions in past years. The results will help you decide how hot, cold, wet, or windy it might be!

Date:

Astronomy

Dec. 16, 2012 Rise Set
Actual Time 8:30 AM CST 4:51 PM CST
Civil Twilight 7:53 AM CST 5:28 PM CST
Nautical Twilight 7:13 AM CST 6:08 PM CST
Astronomical Twilight 6:35 AM CST 6:46 PM CST
Moon 10:50 AM CST (12/16) 9:24 PM CST (12/16)
Length of Visible Light 9h 34m
Length of Day
8h 21m
Waxing Crescent, 16% of the Moon is Illuminated
Dec 16
Waxing Crescent
Dec 19
First Quarter
Dec 28
Full
Jan 4
Last Quarter
Jan 11
New

Hourly Weather History & Observations

Time (CST) Temp. Windchill Dew Point Humidity Pressure Visibility Wind Dir Wind Speed Gust Speed Precip Events Conditions
12:54 AM 12.9 °F 0.7 °F 10.9 °F 92% 29.88 in 0.5 mi NW 9.2 mph - 0.00 in Fog Light Freezing Fog
1:54 AM 12.0 °F 0.5 °F 10.9 °F 95% 29.87 in 0.5 mi NW 8.1 mph - 0.00 in Fog , Snow Light Snow
2:03 AM 12.2 °F 1.7 °F 10.4 °F 92% 29.77 in 0.2 mi NW 6.9 mph - 0.00 in Fog , Snow Light Snow
2:54 AM 12.9 °F 5.2 °F 10.9 °F 92% 29.87 in 0.2 mi NW 4.6 mph - 0.00 in Fog Light Freezing Fog
3:19 AM 14.0 °F 6.5 °F 10.4 °F 86% 29.78 in 0.5 mi NNW 4.6 mph - 0.00 in Fog , Snow Light Snow
3:41 AM 14.0 °F 5.1 °F 12.2 °F 93% 29.78 in 0.2 mi NW 5.8 mph - 0.00 in Fog Light Freezing Fog
3:54 AM 14.0 °F 5.1 °F 10.9 °F 88% 29.88 in 0.5 mi WNW 5.8 mph - 0.00 in Fog , Snow Light Snow
4:33 AM 14.0 °F 6.5 °F 10.4 °F 86% 29.78 in 1.0 mi NNW 4.6 mph - 0.00 in   Overcast
4:42 AM 12.2 °F - 10.4 °F 92% 29.78 in 0.8 mi Calm Calm - 0.00 in   Mist
4:54 AM 14.0 °F - 10.9 °F 88% 29.88 in 0.8 mi Calm Calm - 0.00 in   Mist
5:54 AM 14.0 °F 8.2 °F 12.0 °F 92% 29.88 in 0.5 mi ENE 3.5 mph - N/A Fog Light Freezing Fog
6:54 AM 14.0 °F - 10.9 °F 88% 29.89 in 0.5 mi Calm Calm - N/A Fog Light Freezing Fog
7:54 AM 12.9 °F 6.9 °F 10.9 °F 92% 29.89 in 0.5 mi ENE 3.5 mph - N/A Fog Light Freezing Fog
8:11 AM 14.0 °F 8.2 °F 10.4 °F 86% 29.79 in 0.2 mi SSE 3.5 mph - N/A Fog Light Freezing Fog
8:54 AM 12.9 °F 5.2 °F 10.9 °F 92% 29.90 in 0.2 mi South 4.6 mph - N/A Fog Light Freezing Fog
9:01 AM 12.2 °F 6.1 °F 10.4 °F 92% 29.80 in 0.8 mi Variable 3.5 mph - N/A   Overcast
9:19 AM 12.2 °F 6.1 °F 10.4 °F 92% 29.80 in 0.2 mi SE 3.5 mph - N/A Fog Light Freezing Fog
9:54 AM 12.9 °F 3.8 °F 10.9 °F 92% 29.89 in 0.2 mi East 5.8 mph - N/A Fog Light Freezing Fog
10:38 AM 12.2 °F 2.9 °F 12.2 °F 100% 29.80 in 0.5 mi ESE 5.8 mph - 0.00 in Fog , Snow Light Snow
10:54 AM 12.9 °F 2.6 °F 10.0 °F 88% 29.90 in 0.5 mi ESE 6.9 mph - 0.00 in Fog , Snow Snow
11:54 AM 12.9 °F 2.6 °F 10.0 °F 88% 29.89 in 0.8 mi SSE 6.9 mph - 0.00 in Snow Light Snow
12:01 PM 12.2 °F 4.3 °F 10.4 °F 92% 29.78 in 0.8 mi SSE 4.6 mph - 0.00 in Snow Light Snow
12:13 PM 12.2 °F 2.9 °F 8.6 °F 85% 29.78 in 1.5 mi SSE 5.8 mph - 0.00 in Snow Light Snow
12:54 PM 14.0 °F 3.9 °F 10.0 °F 84% 29.87 in 1.8 mi SE 6.9 mph - 0.00 in Snow Light Snow
1:01 PM 12.2 °F 4.3 °F 8.6 °F 85% 29.76 in 3.0 mi SE 4.6 mph - 0.00 in Snow Light Snow
1:07 PM 12.2 °F 0.7 °F 8.6 °F 85% 29.76 in 1.8 mi SSE 8.1 mph - 0.00 in Snow Light Snow
1:21 PM 12.2 °F 1.7 °F 8.6 °F 85% 29.76 in 3.0 mi SE 6.9 mph - 0.00 in Snow Light Snow
1:54 PM 12.9 °F 2.6 °F 9.0 °F 84% 29.87 in 10.0 mi SSE 6.9 mph - 0.00 in   Mostly Cloudy
2:15 PM 12.2 °F 4.3 °F 8.6 °F 85% 29.76 in 10.0 mi SE 4.6 mph - N/A   Partly Cloudy
2:54 PM 12.9 °F 5.2 °F 9.0 °F 84% 29.86 in 6.0 mi ESE 4.6 mph - N/A   Mostly Cloudy
3:54 PM 12.0 °F 1.5 °F 8.1 °F 84% 29.86 in 10.0 mi ESE 6.9 mph - N/A   Mostly Cloudy
4:54 PM 14.0 °F 5.1 °F 10.9 °F 88% 29.87 in 10.0 mi SE 5.8 mph - N/A   Overcast
5:04 PM 14.0 °F 3.9 °F 10.4 °F 86% 29.77 in 10.0 mi SSE 6.9 mph - N/A   Overcast
5:54 PM 15.1 °F 7.7 °F 12.0 °F 88% 29.87 in 10.0 mi SE 4.6 mph - N/A   Overcast
6:20 PM 12.2 °F 6.1 °F 10.4 °F 92% 29.77 in 10.0 mi SE 3.5 mph - N/A   Overcast
6:44 PM 10.4 °F 2.2 °F 6.8 °F 85% 29.76 in 10.0 mi East 4.6 mph - N/A   Scattered Clouds
6:54 PM 9.0 °F -0.9 °F 7.0 °F 92% 29.87 in 6.0 mi East 5.8 mph - N/A   Scattered Clouds
7:44 PM 10.4 °F 2.2 °F 6.8 °F 85% 29.76 in 10.0 mi SE 4.6 mph - N/A   Mostly Cloudy
7:54 PM 10.9 °F 2.9 °F 8.1 °F 88% 29.87 in 10.0 mi SE 4.6 mph - N/A   Overcast
8:02 PM 10.4 °F 2.2 °F 8.6 °F 92% 29.76 in 2.5 mi SSE 4.6 mph - N/A   Overcast
8:54 PM 14.0 °F 5.1 °F 10.9 °F 88% 29.86 in 2.5 mi SE 5.8 mph - N/A   Overcast
9:01 PM 14.0 °F 5.1 °F 10.4 °F 86% 29.75 in 1.0 mi SE 5.8 mph - N/A   Overcast
9:06 PM 14.0 °F 5.1 °F 12.2 °F 93% 29.75 in 3.0 mi ESE 5.8 mph - N/A   Overcast
9:18 PM 15.8 °F 7.2 °F 12.2 °F 86% 29.76 in 2.5 mi ESE 5.8 mph - 0.00 in Snow Light Snow
9:32 PM 15.8 °F 8.6 °F 12.2 °F 86% 29.76 in 8.0 mi SE 4.6 mph - 0.00 in   Overcast
9:54 PM 16.0 °F 6.3 °F 12.9 °F 88% 29.85 in 9.0 mi ESE 6.9 mph - 0.00 in   Overcast
10:43 PM 17.6 °F 8.2 °F 14.0 °F 86% 29.74 in 1.8 mi SE 6.9 mph - N/A   Overcast
10:54 PM 17.1 °F 6.6 °F 14.0 °F 88% 29.84 in 2.0 mi SE 8.1 mph - N/A   Overcast
11:03 PM 17.6 °F 7.3 °F 14.0 °F 86% 29.74 in 3.0 mi SE 8.1 mph - N/A   Overcast
11:54 PM 18.0 °F 8.7 °F 15.1 °F 88% 29.82 in 2.0 mi ESE 6.9 mph - 0.00 in Snow Light Snow